TimeEDT,TemperatureF,Dew PointF,Humidity,Sea Level PressureIn,VisibilityMPH,Wind Direction,Wind SpeedMPH,Gust SpeedMPH,PrecipitationIn,Events,Conditions,WindDirDegrees,DateUTC
12:52 AM,53.1,48.9,86,30.42,10.0,North,4.6,-,N/A,,Overcast,350,2013-10-13 04:52:00
1:52 AM,51.1,48.0,89,30.42,10.0,Calm,Calm,-,N/A,,Mostly Cloudy,0,2013-10-13 05:52:00
2:52 AM,50.0,46.9,89,30.41,10.0,NNW,3.5,-,N/A,,Mostly Cloudy,330,2013-10-13 06:52:00
3:19 AM,48.2,46.4,93,30.40,10.0,NNW,3.5,-,N/A,,Scattered Clouds,330,2013-10-13 07:19:00
3:26 AM,50.0,46.4,87,30.40,10.0,NNW,3.5,-,N/A,,Mostly Cloudy,340,2013-10-13 07:26:00
3:52 AM,48.0,46.0,93,30.40,10.0,NNW,3.5,-,N/A,,Scattered Clouds,330,2013-10-13 07:52:00
4:52 AM,46.0,44.1,93,30.41,10.0,Calm,Calm,-,N/A,,Clear,0,2013-10-13 08:52:00
5:52 AM,45.0,43.0,93,30.43,9.0,Calm,Calm,-,N/A,,Clear,0,2013-10-13 09:52:00
6:52 AM,43.0,42.1,97,30.43,7.0,WNW,4.6,-,N/A,,Clear,290,2013-10-13 10:52:00
7:52 AM,46.9,45.0,93,30.45,10.0,WNW,3.5,-,N/A,,Clear,290,2013-10-13 11:52:00
8:52 AM,52.0,46.0,80,30.46,10.0,North,3.5,-,N/A,,Partly Cloudy,350,2013-10-13 12:52:00
9:52 AM,55.0,46.9,74,30.46,10.0,Variable,4.6,-,N/A,,Scattered Clouds,0,2013-10-13 13:52:00
10:13 AM,55.4,48.2,77,30.46,10.0,NE,4.6,-,N/A,,Mostly Cloudy,50,2013-10-13 14:13:00
10:52 AM,57.0,46.0,67,30.46,10.0,East,6.9,-,N/A,,Scattered Clouds,100,2013-10-13 14:52:00
11:07 AM,57.2,46.4,67,30.46,10.0,ENE,8.1,-,N/A,,Mostly Cloudy,70,2013-10-13 15:07:00
11:52 AM,57.0,46.0,67,30.46,10.0,ENE,6.9,-,N/A,,Overcast,70,2013-10-13 15:52:00
12:52 PM,57.9,46.0,65,30.45,10.0,ESE,3.5,-,N/A,,Overcast,110,2013-10-13 16:52:00
1:52 PM,57.9,46.0,65,30.43,10.0,East,4.6,-,N/A,,Overcast,100,2013-10-13 17:52:00
2:52 PM,57.9,46.9,67,30.43,10.0,East,3.5,-,N/A,,Overcast,80,2013-10-13 18:52:00
3:52 PM,57.9,46.0,65,30.43,10.0,East,5.8,-,N/A,,Overcast,80,2013-10-13 19:52:00
4:52 PM,57.0,45.0,64,30.42,10.0,Calm,Calm,-,N/A,,Overcast,0,2013-10-13 20:52:00
5:08 PM,57.2,46.4,67,30.41,10.0,North,3.5,-,N/A,,Overcast,10,2013-10-13 21:08:00
5:52 PM,53.1,46.9,80,30.41,10.0,Calm,Calm,-,N/A,,Clear,0,2013-10-13 21:52:00
6:52 PM,48.0,45.0,89,30.42,10.0,Calm,Calm,-,N/A,,Clear,0,2013-10-13 22:52:00
7:52 PM,46.9,45.0,93,30.42,8.0,Calm,Calm,-,N/A,,Clear,0,2013-10-13 23:52:00
8:21 PM,46.4,44.6,93,30.42,9.0,Calm,Calm,-,N/A,,Mostly Cloudy,0,2013-10-14 00:21:00
8:35 PM,46.4,44.6,93,30.42,9.0,Calm,Calm,-,N/A,,Mostly Cloudy,0,2013-10-14 00:35:00
8:52 PM,46.0,44.1,93,30.44,9.0,Calm,Calm,-,N/A,,Mostly Cloudy,0,2013-10-14 00:52:00
9:52 PM,43.0,41.0,93,30.44,5.0,Calm,Calm,-,N/A,,Clear,0,2013-10-14 01:52:00
10:52 PM,44.1,41.0,89,30.43,6.0,Calm,Calm,-,N/A,,Clear,0,2013-10-14 02:52:00
11:03 PM,39.2,37.4,93,30.43,2.5,Calm,Calm,-,N/A,,Partly Cloudy,0,2013-10-14 03:03:00
11:10 PM,39.2,37.4,93,30.43,1.2,NW,4.6,-,N/A,,Partly Cloudy,310,2013-10-14 03:10:00
11:15 PM,41.0,39.2,93,30.43,3.0,Calm,Calm,-,N/A,,Partly Cloudy,0,2013-10-14 03:15:00
11:52 PM,41.0,37.9,89,30.43,8.0,Calm,Calm,-,N/A,,Clear,0,2013-10-14 03:52:00